Location: Montclair
(37.8322°N, 122.2092°W)
Time: 15:40:53
(UTC+00:00)

Cosmos 1954 Rocket - Pass Details

Date: 08 September 2024
Orbit: 748 x 779 km, 74.0° (Epoch: 08 October)

Event Time Altitude Azimuth Distance (km) Brightness Sun altitude
Exits shadow 12:56:03 - 217° (SW) 2,554 6.2 -10.4°
Reaches altitude 10° 12:56:50 10° 220° (SW) 2,263 6.0 -10.2°
Maximum altitude 13:01:44 45° 293° (WNW) 1,023 4.3 -9.3°
Drops below altitude 10° 13:06:42 10° 5° (N) 2,292 6.7 -8.3°
Sets 13:09:11 0° 12° (NNE) 3,226 7.6 -7.9°
